[[{"header":{"parameterUnit":"m.s-1","parameterCategory":1,"la1":30.2991,"la2":30.254,"lo1":-89.0895,"lo2":-89.0444,"dy":0.0017,"dx":0.0017,"nx":28,"ny":28,"refTime":"2024-08-04T03:00:00:Z","depth":0,"parameterNumber":2,"parameterNumberName":"U-component_of_WINDS"},"data":[0,0,0,0,0,0,0,0,0,0,0,0,0,0,0,0,0,0,0,0,0,0,0,0,0,0,0,0,0,0,0,0,0,0,0,0,0,0,0,0,0,0,0,0,0,0,0,0,0,0,0,0,0,0,0,0,0,0,-0.2358,-0.2356,0,-0.2236,-0.2235,-0.2233,-0.2205,-0.2205,-0.2206,-0.2207,-0.2079,-0.2075,-0.2071,0,0,0,0,0,0,0,0,0,0,0,0,0,-0.256,-0.2556,-0.2358,-0.2356,-0.2355,-0.2236,-0.2235,-0.2233,-0.2205,-0.2206,-0.2207,-0.2207,-0.208,-0.2076,-0.207,0,0,0,0,0,0,0,0,0,0,0,0,0,-0.2459,-0.2555,-0.2358,-0.2326,-0.2322,-0.2237,-0.2235,-0.2233,-0.2204,-0.2206,-0.2207,-0.2208,-0.2082,-0.2076,-0.207,-0.2006,0,0,-0.2051,-0.2048,0,0,0,0,0,0,0,0,-0.2464,-0.2451,-0.2332,-0.2328,-0.2324,-0.2237,-0.2259,-0.2157,-0.2204,-0.2249,-0.2207,-0.2209,-0.213,-0.212,-0.2095,-0.2,-0.1995,-0.205,-0.2046,-0.2044,-0.2042,0,0,0,0,0,0,0,-0.2471,-0.2456,-0.2309,-0.2331,-0.2325,-0.2316,-0.2303,-0.2239,-0.2184,-0.2245,-0.2243,-0.2229,-0.2128,-0.2101,-0.2091,-0.1993,-0.205,-0.2045,-0.2041,-0.2038,-0.1837,-0.1836,0,0,0,0,0,0,-0.2485,-0.2462,-0.2313,-0.2306,-0.2399,-0.2312,-0.2297,-0.2263,-0.2185,-0.2174,-0.2228,-0.2228,-0.2111,-0.2099,-0.2087,-0.2005,-0.2044,-0.2038,-0.2034,-0.1839,-0.1837,-0.1835,0,0,0,0,0,0,-0.2489,-0.2472,-0.2318,-0.2383,-0.2363,-0.2307,-0.2269,-0.226,-0.2233,-0.2172,-0.2161,-0.221,-0.2111,-0.2096,-0.2026,-0.2,-0.2035,-0.2029,-0.1841,-0.1838,-0.1836,-0.1843,0,0,0,0,0,0,-0.2495,-0.2473,-0.245,-0.2383,-0.236,-0.2261,-0.2268,-0.2257,-0.2223,-0.2222,-0.2153,-0.2142,-0.2111,-0.2036,-0.202,-0.1992,-0.2024,-0.1843,-0.1839,-0.1837,-0.1844,-0.1841,-0.1838,0,0,0,0,0,-0.2502,-0.2456,-0.2449,-0.2431,-0.233,-0.226,-0.2246,-0.2212,-0.2221,-0.2196,-0.2156,-0.2144,-0.2006,-0.2029,-0.2011,-0.1981,-0.1844,-0.184,-0.1837,-0.1846,-0.1842,-0.1838,0,0,0,0,0,0,-0.2521,-0.2447,-0.2438,-0.2369,-0.2321,-0.2255,-0.2223,-0.2209,-0.2157,-0.2158,-0.2117,-0.2101,-0.2034,-0.2,-0.2027,-0.1914,-0.1925,-0.1918,-0.1938,-0.1933,-0.193,-0.1939,-0.2019,0,0,0,0,0,-0.2517,-0.2468,-0.2406,-0.2351,-0.2327,-0.2279,-0.2248,-0.2226,-0.2173,-0.2153,-0.2108,-0.2057,-0.2001,-0.1966,-0.1911,-0.184,-0.1823,-0.181,-0.1807,-0.1804,-0.1798,-0.1755,-0.1748,-0.1823,-0.1823,-0.1823,0,0,-0.2508,-0.2462,-0.2434,-0.2354,-0.2314,-0.2262,-0.2262,-0.2208,-0.2168,-0.2144,-0.2075,-0.2041,-0.198,-0.1909,-0.1875,-0.1879,-0.1774,-0.18,-0.1798,-0.1793,-0.1751,-0.1744,-0.1737,-0.1821,-0.1821,-0.1822,0,0,-0.2466,-0.2427,-0.2376,-0.2336,-0.2276,-0.2244,-0.2232,-0.2167,-0.2143,-0.2074,-0.2054,-0.2006,-0.1912,-0.1869,-0.1835,-0.1775,-0.1761,-0.1758,-0.174,-0.1699,-0.1693,-0.1687,-0.1664,-0.1656,-0.1753,-0.1753,-0.1753,0,-0.2463,-0.2386,-0.2352,-0.2298,-0.2262,-0.2238,-0.2185,-0.2148,-0.2072,-0.2047,-0.2053,-0.1933,-0.1891,-0.1808,-0.1794,-0.1768,-0.1751,-0.1766,-0.1697,-0.1691,-0.1685,-0.1662,-0.1654,-0.1753,-0.1753,-0.1753,-0.1753,0,-0.2383,-0.233,-0.2296,-0.2224,-0.2185,-0.2132,-0.2088,-0.2052,-0.2033,-0.2,-0.1928,-0.1877,-0.1811,-0.1789,-0.177,-0.1703,-0.1707,-0.1705,-0.1715,-0.1679,-0.1656,-0.1647,-0.1752,-0.1752,-0.1752,-0.1752,0,0,-0.2349,-0.2259,-0.2247,-0.2213,-0.2144,-0.2101,-0.2046,-0.1982,-0.1951,-0.19,-0.1851,-0.1771,-0.1769,-0.173,-0.1706,-0.167,-0.1622,-0.1672,-0.167,-0.1663,-0.1542,-0.1543,-0.1533,-0.1614,-0.1612,-0.161,-0.1547,0,-0.2297,-0.2199,-0.2166,-0.2084,-0.2033,-0.2009,-0.196,-0.1912,-0.1879,-0.1829,-0.1792,-0.1736,-0.1738,-0.1714,-0.1677,-0.1636,-0.1597,-0.1641,-0.1566,-0.1563,-0.158,-0.1522,-0.1523,-0.1465,-0.1538,-0.1536,-0.1535,0,-0.2223,-0.2171,-0.2084,-0.202,-0.1997,-0.1954,-0.1892,-0.1846,-0.1789,-0.1767,-0.1724,-0.1702,-0.1641,-0.1655,-0.1569,-0.1599,-0.1567,-0.1542,-0.1538,-0.1529,-0.1546,-0.1509,-0.1446,-0.1437,-0.1522,-0.1523,-0.1524,0,-0.2205,-0.2113,-0.2048,-0.2021,-0.1944,-0.1914,-0.1881,-0.1826,-0.1789,-0.1734,-0.1709,-0.1648,-0.1614,-0.1566,-0.1527,-0.1542,-0.1444,-0.1456,-0.1422,-0.1423,-0.1402,-0.1403,-0.1331,-0.1383,-0.1384,-0.1384,-0.1384,0,-0.2149,-0.2097,-0.2039,-0.1999,-0.1938,-0.19,-0.1841,-0.1806,-0.1756,-0.1708,-0.1683,-0.1637,-0.159,-0.1537,-0.1506,-0.1438,-0.1424,-0.1403,-0.1395,-0.1404,-0.1407,-0.1381,-0.1383,-0.1381,-0.1382,-0.1382,-0.1383,0,-0.2118,-0.2078,-0.2006,-0.1939,-0.1921,-0.1879,-0.1822,-0.1781,-0.1747,-0.1685,-0.1668,-0.1614,-0.1551,-0.1508,-0.1427,-0.1406,-0.1332,-0.1325,-0.1351,-0.1347,-0.1315,-0.1318,-0.1222,-0.1207,-0.1272,-0.1271,-0.1271,0,-0.2085,-0.2044,-0.1973,-0.1939,-0.1906,-0.1852,-0.1814,-0.1774,-0.1735,-0.1667,-0.1634,-0.1569,-0.1515,-0.1415,-0.1367,-0.1304,-0.1295,-0.1266,-0.1285,-0.1295,-0.1292,-0.1294,-0.1289,-0.1262,-0.1262,-0.1262,-0.1261,0,-0.2029,-0.2011,-0.1958,-0.1898,-0.1853,-0.1804,-0.1753,-0.1727,-0.1678,-0.1635,-0.1571,-0.1529,-0.1446,-0.1381,-0.1313,-0.1277,-0.126,-0.1256,-0.1244,-0.1252,-0.1268,-0.1257,-0.1341,-0.1258,-0.1258,-0.1258,-0.1259,-0.1259,-0.1994,-0.1956,-0.19,-0.1841,-0.1799,-0.1752,-0.171,-0.1671,-0.1617,-0.1547,-0.1526,-0.1458,-0.14,-0.1308,-0.127,-0.1215,-0.1218,-0.1202,-0.1197,-0.1193,-0.1192,-0.1278,-0.1203,-0.1203,-0.1203,-0.1203,-0.1203,0,-0.1935,-0.1898,-0.1845,-0.1775,-0.1728,-0.1718,-0.1661,-0.1622,-0.1563,-0.1512,-0.1459,-0.1383,-0.132,-0.1267,-0.1201,-0.1167,-0.1157,-0.1151,-0.1152,-0.1143,-0.1195,-0.1211,-0.116,-0.116,-0.116,-0.116,-0.116,-0.116,-0.1899,-0.1833,-0.1808,-0.1719,-0.1681,-0.1616,-0.1584,-0.154,-0.1498,-0.1415,-0.1363,-0.1329,-0.1276,-0.1205,-0.1146,-0.1132,-0.1107,-0.1102,-0.1086,-0.1135,-0.114,-0.1145,-0.1159,-0.1098,-0.1098,-0.1038,-0.1038,-0.1038]},{"header":{"parameterUnit":"m.s-1","parameterCategory":1,"la1":30.2991,"la2":30.254,"lo1":-89.0895,"lo2":-89.0444,"dy":0.0017,"dx":0.0017,"nx":28,"ny":28,"refTime":"2024-08-04T03:00:00:Z","depth":0,"parameterNumber":3,"parameterNumberName":"V-component_of_WINDS"},"data":[0,0,0,0,0,0,0,0,0,0,0,0,0,0,0,0,0,0,0,0,0,0,0,0,0,0,0,0,0,0,0,0,0,0,0,0,0,0,0,0,0,0,0,0,0,0,0,0,0,0,0,0,0,0,0,0,0,0,-1.8822,-1.8822,0,-1.8886,-1.8886,-1.8887,-1.9016,-1.9019,-1.9021,-1.9024,-1.9086,-1.9085,-1.9084,0,0,0,0,0,0,0,0,0,0,0,0,0,-1.8811,-1.881,-1.8822,-1.8822,-1.8823,-1.8885,-1.8886,-1.8887,-1.9015,-1.9019,-1.9022,-1.9025,-1.9086,-1.9085,-1.9084,0,0,0,0,0,0,0,0,0,0,0,0,0,-1.8839,-1.881,-1.8822,-1.8895,-1.8902,-1.8885,-1.8886,-1.8887,-1.9015,-1.9019,-1.9023,-1.9026,-1.9086,-1.9085,-1.9084,-1.9,0,0,-1.908,-1.908,0,0,0,0,0,0,0,0,-1.8837,-1.8839,-1.8883,-1.889,-1.8898,-1.8947,-1.8905,-1.8925,-1.9014,-1.8972,-1.9024,-1.9028,-1.9036,-1.9039,-1.9043,-1.9003,-1.9005,-1.908,-1.908,-1.9079,-1.9079,0,0,0,0,0,0,0,-1.8835,-1.8837,-1.8847,-1.8884,-1.8893,-1.8925,-1.8933,-1.891,-1.8981,-1.8976,-1.8985,-1.8991,-1.9041,-1.9043,-1.9045,-1.9006,-1.908,-1.9079,-1.9079,-1.9078,-1.8904,-1.8901,0,0,0,0,0,0,-1.8823,-1.8835,-1.8845,-1.8849,-1.8876,-1.8922,-1.8931,-1.8927,-1.8982,-1.8994,-1.8988,-1.8997,-1.9043,-1.9046,-1.9048,-1.8955,-1.9079,-1.9078,-1.9078,-1.8908,-1.8904,-1.8899,0,0,0,0,0,0,-1.8822,-1.8822,-1.8842,-1.8844,-1.8849,-1.8918,-1.8912,-1.8926,-1.8929,-1.8991,-1.9005,-1.8978,-1.9047,-1.9049,-1.9012,-1.8959,-1.9078,-1.9077,-1.8913,-1.8907,-1.8901,-1.8767,0,0,0,0,0,0,-1.8821,-1.8821,-1.879,-1.8843,-1.8849,-1.8805,-1.8909,-1.8925,-1.8927,-1.894,-1.8985,-1.8996,-1.905,-1.9013,-1.9011,-1.896,-1.9076,-1.8918,-1.891,-1.8903,-1.8777,-1.8757,-1.8741,0,0,0,0,0,-1.882,-1.8748,-1.8787,-1.8788,-1.8811,-1.8801,-1.8805,-1.8869,-1.8922,-1.8892,-1.8932,-1.8995,-1.8965,-1.9008,-1.9007,-1.8954,-1.8922,-1.8912,-1.8904,-1.8785,-1.8761,-1.8741,0,0,0,0,0,0,-1.8684,-1.8756,-1.88,-1.8743,-1.8766,-1.8823,-1.8786,-1.8842,-1.8848,-1.8859,-1.8938,-1.8947,-1.89,-1.8924,-1.897,-1.8878,-1.8954,-1.8944,-1.8863,-1.8842,-1.8824,-1.8819,-1.9075,0,0,0,0,0,-1.8648,-1.8635,-1.8698,-1.8642,-1.8651,-1.8716,-1.8714,-1.8763,-1.8788,-1.8798,-1.8836,-1.8857,-1.8854,-1.8849,-1.8849,-1.8782,-1.8794,-1.8745,-1.8727,-1.8712,-1.8703,-1.8672,-1.8651,-1.887,-1.887,-1.887,0,0,-1.8572,-1.861,-1.8596,-1.8615,-1.8638,-1.8623,-1.8723,-1.8702,-1.8692,-1.8794,-1.8762,-1.879,-1.8821,-1.8768,-1.8747,-1.8787,-1.8646,-1.8701,-1.8689,-1.8687,-1.866,-1.8639,-1.8621,-1.8864,-1.8865,-1.8866,0,0,-1.8426,-1.8453,-1.841,-1.8432,-1.8467,-1.8512,-1.8501,-1.8551,-1.8575,-1.8544,-1.8622,-1.8611,-1.8602,-1.8621,-1.8629,-1.8496,-1.8554,-1.8493,-1.84,-1.8368,-1.8351,-1.8336,-1.8289,-1.8272,-1.8484,-1.8484,-1.8483,0,-1.8327,-1.8308,-1.8381,-1.8356,-1.8363,-1.8458,-1.8416,-1.8433,-1.8465,-1.8467,-1.8512,-1.8505,-1.8532,-1.8487,-1.8455,-1.8458,-1.8449,-1.8488,-1.8348,-1.8334,-1.8321,-1.8277,-1.8259,-1.8476,-1.8477,-1.8478,-1.8478,0,-1.8186,-1.8171,-1.8133,-1.8163,-1.8166,-1.8132,-1.82,-1.8195,-1.8243,-1.8284,-1.8252,-1.8289,-1.8299,-1.8292,-1.8338,-1.8254,-1.8278,-1.8334,-1.8411,-1.8291,-1.8252,-1.8235,-1.8465,-1.8468,-1.847,-1.8472,0,0,-1.7952,-1.8027,-1.8012,-1.8028,-1.8075,-1.8066,-1.8038,-1.8049,-1.8043,-1.8063,-1.8042,-1.8034,-1.8088,-1.8097,-1.8147,-1.812,-1.8013,-1.818,-1.8182,-1.8148,-1.7925,-1.7882,-1.7862,-1.8053,-1.805,-1.8048,-1.7923,0,-1.7817,-1.7774,-1.784,-1.7781,-1.777,-1.7863,-1.7838,-1.7865,-1.7902,-1.7899,-1.7941,-1.7934,-1.8005,-1.8012,-1.7989,-1.8031,-1.797,-1.8041,-1.8034,-1.8033,-1.8023,-1.7841,-1.7795,-1.7675,-1.7908,-1.7905,-1.7903,0,-1.7652,-1.7667,-1.7607,-1.7662,-1.766,-1.7636,-1.7654,-1.7649,-1.7682,-1.7712,-1.7725,-1.7785,-1.7762,-1.7839,-1.7809,-1.7856,-1.7858,-1.7879,-1.7876,-1.7877,-1.796,-1.7837,-1.7638,-1.7619,-1.7879,-1.7881,-1.7883,0,-1.7489,-1.7494,-1.746,-1.7471,-1.7533,-1.7515,-1.754,-1.7577,-1.7581,-1.7597,-1.76,-1.7612,-1.7619,-1.7627,-1.769,-1.7739,-1.7653,-1.7734,-1.7677,-1.7675,-1.7653,-1.7653,-1.7451,-1.7654,-1.7655,-1.7655,-1.7655,0,-1.7331,-1.7291,-1.7388,-1.7367,-1.7326,-1.7404,-1.7361,-1.7395,-1.7428,-1.7416,-1.7496,-1.7483,-1.7567,-1.7563,-1.7612,-1.7581,-1.7582,-1.7606,-1.762,-1.7599,-1.7596,-1.76,-1.761,-1.765,-1.7651,-1.7652,-1.7653,0,-1.7141,-1.7204,-1.7173,-1.7236,-1.7251,-1.7218,-1.7272,-1.7255,-1.73,-1.7284,-1.7284,-1.7354,-1.7354,-1.7418,-1.743,-1.7464,-1.7412,-1.744,-1.74,-1.741,-1.7349,-1.7354,-1.7142,-1.7119,-1.7336,-1.7334,-1.7333,0,-1.7035,-1.7007,-1.7068,-1.7066,-1.7088,-1.7084,-1.7089,-1.7166,-1.7168,-1.7206,-1.7185,-1.7192,-1.7202,-1.7198,-1.7249,-1.726,-1.7289,-1.7215,-1.7291,-1.7272,-1.7289,-1.729,-1.7288,-1.7198,-1.7195,-1.7193,-1.7191,0,-1.684,-1.6875,-1.688,-1.6897,-1.6902,-1.6919,-1.694,-1.6934,-1.7019,-1.7018,-1.702,-1.7027,-1.7042,-1.7048,-1.707,-1.7096,-1.7157,-1.7167,-1.7155,-1.7132,-1.7111,-1.7123,-1.7356,-1.7171,-1.7173,-1.7174,-1.7175,-1.7176,-1.669,-1.667,-1.6711,-1.6715,-1.6741,-1.676,-1.6749,-1.6794,-1.6797,-1.6816,-1.6862,-1.6857,-1.6894,-1.6929,-1.695,-1.6948,-1.6985,-1.6967,-1.6962,-1.6956,-1.6945,-1.7112,-1.6952,-1.6953,-1.6953,-1.6954,-1.6954,0,-1.65,-1.6532,-1.6536,-1.6565,-1.6569,-1.663,-1.6658,-1.6657,-1.6652,-1.6682,-1.6691,-1.6695,-1.6703,-1.6756,-1.677,-1.6758,-1.6787,-1.6759,-1.6761,-1.6766,-1.691,-1.692,-1.6736,-1.6736,-1.6736,-1.6736,-1.6736,-1.6736,-1.6402,-1.6373,-1.6412,-1.6398,-1.6431,-1.6428,-1.6439,-1.6458,-1.6483,-1.6484,-1.6492,-1.6528,-1.6568,-1.6586,-1.6596,-1.6612,-1.6614,-1.6576,-1.6601,-1.6735,-1.6756,-1.6776,-1.6785,-1.6576,-1.6576,-1.6458,-1.6457,-1.6456]}]]